Rbgn^[z[y[W
メイン
   新天体発見情報
     Comet C/2024 G4 (PANSTARRS)
投稿するにはまず登録を

スレッド表示 | 新しいものから 前のトピック | 次のトピック | 下へ
投稿者 スレッド
佐藤裕久
投稿日時: 2024-5-24 14:36
モデレータ
登録日: 2005-6-12
居住地: 日本
投稿: 2703
オンライン
Comet C/2024 G4 (PANSTARRS)

R. Weryk (西オンタリオ大学,物理および天文学科)の通報によると、5月1日、HaleakalaにあるPan-
STARRS1 1.8-m Ritchey-Chretien反射望遠鏡で得た画像から彗星を発見した。
4枚の45-秒のw-バンドサーベイ画像では、1".3-1".5のシーイングで、1".9 (半値全幅:FWHM)の拡散
した頭部が見え、p.a. 45°に向かって4"の短い尾がある。
5月2.3日UT、60-秒2枚のスタックフォローアップw-バンドPan-STARRS1画像では、1".25のシーイング
で、1".8(FWHM)の集光したコマと5"の尾が見える。
Werykはさらに、5月4.26日、Maunakeaの3.6-m Canada-France-Hawaii望遠鏡による4枚の60-秒のgri-
バンドフォローアップ観測から、0".7のシーイングで1".4 (FWHM)の非常に集光したコマが見え、p.a.
350-75°にわたって5"の広い尾がある。
Werykはその後、3月19.48日と4月1.4日(20.7-20.9等)、この彗星の発見前のPan-STARRS1の観測と同定
した。
4月29.2日、Mt Lemmon 1.5-m 反射望遠鏡による発見前の観測も、後日報告された(20.3-20.7等)。
小惑星センターのPCCP webpageに公表後、佐藤英貴氏(東京都文京区, 5月2.45-2.46日UT、60-秒露出
16枚のスタック, 0.51-m f/6.8 アストログラフ, Siding Spring, NSW, オーストラリア, 遠隔操作:
強く集光した7" のコマが見えるが尾はなかった。6".6の円形範囲で測定した光度は19.6等であった)ら
CCD位置観測者によって彗星状と観測された。

彗星機能の報告は次のとおり、

OC   Date        Reporter           Coma    Tail    PA          Exposures
X09  2024-05-02  S. Deen            3".5
Q62  2024-05-02  H. Sato            7"                           16x60s
F51  2024-05-02  R. Weryk           0".5      5"     45           2x60s
T14  2024-05-04  R. Weryk           0".7      5"     75-350       4x60s

発見位置は次のとおり、

     2024 UT             R.A. (2000) Decl.       Mag.
     May   1.31557   12 30 26.83   -22 29 47.3   20.8
           1.32680   12 30 26.48   -22 29 44.3   21.0
           1.33841   12 30 26.15   -22 29 41.7   21.0
           1.34964   12 30 25.80   -22 29 38.7   20.9

MPCの楕円軌道要素、位置推算表は次のとおり、

Orbital elements:
    P/2024 J1 (PANSTARRS)                                                       
Epoch 2023 Sept. 13.0 TT = JDT 2460200.5                                        
T 2023 Nov. 11.26077 TT                                 Rudenko                 
q   2.6371448            (2000.0)            P               Q                  
n   0.13276601     Peri.  200.36188     -0.94713685     -0.28853121             
a   3.8054975      Node   321.95805     +0.31675175     -0.77146052             
e   0.3070171      Incl.   13.15916     +0.05099146     -0.56709646             
P   7.42                                                                        
From 24 observations 2024 Mar. 19-May 4, mean residual 0".3.                    
                                                                                
    P/2024 J1 (PANSTARRS)                                                       
Epoch 2024 Mar. 31.0 TT = JDT 2460400.5                                         
T 2023 Nov. 11.26072 TT                                 Rudenko                 
q   2.6371438            (2000.0)            P               Q                  
n   0.13269359     Peri.  200.36468     -0.94713208     -0.28854866             
a   3.8068821      Node   321.95435     +0.31676535     -0.77147208             
e   0.3072694      Incl.   13.15770     +0.05099542     -0.56707187             
P   7.43                                                                        
From 24 observations 2024 Mar. 19-May 4, mean residual 0".3.                    
                                                                                
Ephemeris:
Date    TT    R. A. (2000) Decl.     Delta      r    Elong.  Phase   m1
2024 04 08    12 46 03.8 -23 48 27   1.8024  2.7741   162.6     6.2  20.2
...
2024 04 23    12 35 01.1 -23 03 01   1.8501  2.8013   156.6     8.2  20.3
...
2024 05 01    12 30 35.6 -22 31 03   1.8983  2.8166   150.0    10.3  20.4
...
2024 05 07    12 28 10.2 -22 06 13   1.9441  2.8284   144.7    11.9  20.5
2024 05 08    12 27 50.9 -22 02 07   1.9524  2.8304   143.8    12.2  20.5
2024 05 09    12 27 32.9 -21 58 03   1.9610  2.8325   142.9    12.4  20.5
...
2024 05 15    12 26 15.8 -21 34 32   2.0166  2.8447   137.5    13.9  20.6
...
2024 05 23    12 25 54.5 -21 06 53   2.1006  2.8614   130.3    15.7  20.7
...
2024 06 07    12 29 14.1 -20 31 15   2.2833  2.8941   117.4    18.1  20.9

(MPEC 2024-J133、CBET 5393)

スレッド表示 | 新しいものから 前のトピック | 次のトピック | トップ

投稿するにはまず登録を
 
© 1999 Tsutomu Seki.